Simultaneous Nadir Overpasses (SNOs) Predictions

Prediction of SNOs between GOES-16 and LANDSAT-8 Satellite Orbit:

Table of predicted SNOs for the next 14.0 days since TLE Epoch: 2/17/2024
Index Date Time (GOES-16) GOES-16 Lat,Lon LANDSAT-8 Lat,Lon Distance(km) Time Diff (sec)
1 02/17/2024 03:24:41 -0.05, -75.20 0.00, -77.77 285.76 80
2 02/19/2024 03:09:40 -0.04, -75.21 0.04, -74.69 58.24 80
3 02/21/2024 02:57:29 -0.04, -75.22 0.72, -71.74 395.75 80
4 02/21/2024 15:21:01 0.04, -75.24 0.40, -76.90 188.21 58
5 02/23/2024 15:09:12 0.04, -75.27 -0.25, -73.94 150.82 80
6 02/24/2024 03:30:34 -0.05, -75.26 -0.89, -79.12 440.21 80
7 02/25/2024 14:56:59 0.04, -75.30 -0.88, -70.98 490.87 80
8 02/26/2024 03:18:21 -0.05, -75.29 -0.26, -76.17 99.98 80
9 02/28/2024 03:03:28 -0.04, -75.33 0.41, -73.21 241.12 80
10 02/28/2024 15:24:43 0.05, -75.35 0.68, -78.37 342.37 80
11 03/01/2024 15:12:29 0.04, -75.40 0.04, -75.40 0.91 80
